ONEWEB-0081 (45429 NORAD) Tracking and Keplerian Element Data

This shows tracking and keplerian element data for the satellite.

Feedback or suggestion? Click here.




ElementValue
Catalog45429
NameONEWEB-0081
Epoch Orbit1595
Epoch Day187.50002315
Epoch Year2020
RAAN104.3799
Inclination87.5622
Eccentricity0.0024936
Argument of Perigee270.3414
Mean Anonmoly2.8665
Mean Motion14.89691954
Decay Rate-0.00021373
L11 45429U 20020F 20187.50002315 -.00021373 00000-0 -22337-2 0 9999
L22 45429 87.5622 104.3799 0024936 270.3414 2.8665 14.89691954 15957

Live tracking and technical data element details for ONEWEB-0081 (NORAD 45429). ONEWEB-0081 can be tracked NOW for your location showing map with azimuth and elevation plus other details from your city location.

Track the satellite on the map from your city or location and see movement details for azimuth, elevation, latitude, longitude, range, height, and movement on the map or in text.







IsCatalogInMostPopularTable: catalog: 45429, numindb: 20
Update: records affected: 1



GetName: 45429 ONEWEB-0081

Hit Count: updated at: Mon, 06 Jul 2020 05:51:45 GMT